Year,Month,Day,Hour,Minute,Value (Times are PST for temperature in C)
2017,01,22,00,00,5.90
2017,01,22,00,01,5.90
2017,01,22,00,02,5.90
2017,01,22,00,03,5.90
2017,01,22,00,04,6.00
2017,01,22,00,05,6.10
2017,01,22,00,06,6.10
2017,01,22,00,07,6.10
2017,01,22,00,08,6.10
2017,01,22,00,09,6.20
2017,01,22,00,10,6.20
2017,01,22,00,11,6.20
2017,01,22,00,12,6.20
2017,01,22,00,13,6.20
2017,01,22,00,14,6.20
2017,01,22,00,15,6.20
2017,01,22,00,16,6.20
2017,01,22,00,17,6.20
2017,01,22,00,18,6.10
2017,01,22,00,19,6.10
2017,01,22,00,20,6.10
2017,01,22,00,21,6.10
2017,01,22,00,22,6.10
2017,01,22,00,23,6.10
2017,01,22,00,24,6.10
2017,01,22,00,25,6.10
2017,01,22,00,26,6.10
2017,01,22,00,27,6.10
2017,01,22,00,28,6.10
2017,01,22,00,29,6.10
2017,01,22,00,30,6.10
2017,01,22,00,31,6.10
2017,01,22,00,32,6.10
2017,01,22,00,33,6.10
2017,01,22,00,34,6.10
2017,01,22,00,35,6.10
2017,01,22,00,36,6.10
2017,01,22,00,37,6.10
2017,01,22,00,38,6.10
2017,01,22,00,39,6.20
2017,01,22,00,40,6.20
2017,01,22,00,41,6.20
2017,01,22,00,42,6.20
2017,01,22,00,43,6.20
2017,01,22,00,44,6.20
2017,01,22,00,45,6.20
2017,01,22,00,46,6.20
2017,01,22,00,47,6.20
2017,01,22,00,48,6.20
2017,01,22,00,49,6.20
2017,01,22,00,50,6.20
2017,01,22,00,51,6.20
2017,01,22,00,52,6.20
2017,01,22,00,53,6.20
2017,01,22,00,54,6.20
2017,01,22,00,55,6.20
2017,01,22,00,56,6.20
2017,01,22,00,57,6.20
2017,01,22,00,58,6.20
2017,01,22,00,59,6.30
2017,01,22,01,00,6.30
2017,01,22,01,01,6.30
2017,01,22,01,02,6.30
2017,01,22,01,03,6.30
2017,01,22,01,04,6.30
2017,01,22,01,05,6.30
2017,01,22,01,06,6.30
2017,01,22,01,07,6.30
2017,01,22,01,08,6.30
2017,01,22,01,09,6.30
2017,01,22,01,10,6.30
2017,01,22,01,11,6.30
2017,01,22,01,12,6.40
2017,01,22,01,13,6.40
2017,01,22,01,14,6.40
2017,01,22,01,15,6.40
2017,01,22,01,16,6.40
2017,01,22,01,17,6.40
2017,01,22,01,18,6.40
2017,01,22,01,19,6.40
2017,01,22,01,20,6.40
2017,01,22,01,21,6.40
2017,01,22,01,22,6.40
2017,01,22,01,23,6.40
2017,01,22,01,24,6.40
2017,01,22,01,25,6.40
2017,01,22,01,26,6.40
2017,01,22,01,27,6.40
2017,01,22,01,28,6.40
2017,01,22,01,29,6.30
2017,01,22,01,30,6.30
2017,01,22,01,31,6.30
2017,01,22,01,32,6.30
2017,01,22,01,33,6.20
2017,01,22,01,34,6.30
2017,01,22,01,35,6.30
2017,01,22,01,36,6.30
2017,01,22,01,37,6.20
2017,01,22,01,38,6.30
2017,01,22,01,39,6.30
2017,01,22,01,40,6.30
2017,01,22,01,41,6.30
2017,01,22,01,42,6.30
2017,01,22,01,43,6.30
2017,01,22,01,44,6.30
2017,01,22,01,45,6.30
2017,01,22,01,46,6.40
2017,01,22,01,47,6.40
2017,01,22,01,48,6.40
2017,01,22,01,49,6.40
2017,01,22,01,50,6.40
2017,01,22,01,51,6.40
2017,01,22,01,52,6.40
2017,01,22,01,53,6.50
2017,01,22,01,54,6.50
2017,01,22,01,55,6.60
2017,01,22,01,56,6.60
2017,01,22,01,57,6.60
2017,01,22,01,58,6.60
2017,01,22,01,59,6.60
2017,01,22,02,00,6.60
2017,01,22,02,01,6.60
2017,01,22,02,02,6.60
2017,01,22,02,03,6.60
2017,01,22,02,04,6.70
2017,01,22,02,05,6.70
2017,01,22,02,06,6.70
2017,01,22,02,07,6.70
2017,01,22,02,08,6.70
2017,01,22,02,09,6.70
2017,01,22,02,10,6.70
2017,01,22,02,11,6.70
2017,01,22,02,12,6.70
2017,01,22,02,13,6.70
2017,01,22,02,14,6.70
2017,01,22,02,15,6.70
2017,01,22,02,16,6.60
2017,01,22,02,17,6.70
2017,01,22,02,18,6.70
2017,01,22,02,19,6.70
2017,01,22,02,20,6.70
2017,01,22,02,21,6.70
2017,01,22,02,22,6.80
2017,01,22,02,23,6.80
2017,01,22,02,24,6.90
2017,01,22,02,25,6.90
2017,01,22,02,26,6.90
2017,01,22,02,27,7.00
2017,01,22,02,28,7.00
2017,01,22,02,29,7.10
2017,01,22,02,30,7.10
2017,01,22,02,31,7.10
2017,01,22,02,32,7.10
2017,01,22,02,33,7.10
2017,01,22,02,34,7.20
2017,01,22,02,35,7.20
2017,01,22,02,36,7.20
2017,01,22,02,37,7.20
2017,01,22,02,38,7.20
2017,01,22,02,39,7.20
2017,01,22,02,40,7.20
2017,01,22,02,41,7.20
2017,01,22,02,42,7.20
2017,01,22,02,43,7.20
2017,01,22,02,44,7.20
2017,01,22,02,45,7.20
2017,01,22,02,46,7.30
2017,01,22,02,47,7.30
2017,01,22,02,48,7.30
2017,01,22,02,49,7.30
2017,01,22,02,50,7.30
2017,01,22,02,51,7.30
2017,01,22,02,52,7.40
2017,01,22,02,53,7.40
2017,01,22,02,54,7.40
2017,01,22,02,55,7.40
2017,01,22,02,56,7.40
2017,01,22,02,57,7.40
2017,01,22,02,58,7.50
2017,01,22,02,59,7.50
2017,01,22,03,00,7.50
2017,01,22,03,01,7.50
2017,01,22,03,02,7.50
2017,01,22,03,03,7.60
2017,01,22,03,04,7.70
2017,01,22,03,05,7.70
2017,01,22,03,06,7.70
2017,01,22,03,07,7.70
2017,01,22,03,08,7.80
2017,01,22,03,09,7.80
2017,01,22,03,10,7.80
2017,01,22,03,11,7.80
2017,01,22,03,12,7.80
2017,01,22,03,13,7.80
2017,01,22,03,14,7.80
2017,01,22,03,15,7.80
2017,01,22,03,16,7.80
2017,01,22,03,17,7.80
2017,01,22,03,18,7.80
2017,01,22,03,19,7.80
2017,01,22,03,20,7.80
2017,01,22,03,21,7.70
2017,01,22,03,22,7.70
2017,01,22,03,23,7.70
2017,01,22,03,24,7.70
2017,01,22,03,25,7.70
2017,01,22,03,26,7.70
2017,01,22,03,27,7.70
2017,01,22,03,28,7.70
2017,01,22,03,29,7.70
2017,01,22,03,30,7.70
2017,01,22,03,31,7.70
2017,01,22,03,32,7.70
2017,01,22,03,33,7.70
2017,01,22,03,34,7.70
2017,01,22,03,35,7.70
2017,01,22,03,36,7.70
2017,01,22,03,37,7.60
2017,01,22,03,38,7.60
2017,01,22,03,39,7.60
2017,01,22,03,40,7.60
2017,01,22,03,41,7.60
2017,01,22,03,42,7.60
2017,01,22,03,43,7.60
2017,01,22,03,44,7.70
2017,01,22,03,45,7.70
2017,01,22,03,46,7.70
2017,01,22,03,47,7.70
2017,01,22,03,48,7.70
2017,01,22,03,49,7.70
2017,01,22,03,50,7.70
2017,01,22,03,51,7.70
2017,01,22,03,52,7.70
2017,01,22,03,53,7.70
2017,01,22,03,54,7.70
2017,01,22,03,55,7.70
2017,01,22,03,56,7.70
2017,01,22,03,57,7.60
2017,01,22,03,58,7.60
2017,01,22,03,59,7.60
2017,01,22,04,00,7.60
2017,01,22,04,01,7.60
2017,01,22,04,02,7.60
2017,01,22,04,03,7.60
2017,01,22,04,04,7.60
2017,01,22,04,05,7.50
2017,01,22,04,06,7.50
2017,01,22,04,07,7.50
2017,01,22,04,08,7.50
2017,01,22,04,09,7.50
2017,01,22,04,10,7.50
2017,01,22,04,11,7.50
2017,01,22,04,12,7.50
2017,01,22,04,13,7.40
2017,01,22,04,14,7.40
2017,01,22,04,15,7.40
2017,01,22,04,16,7.40
2017,01,22,04,17,7.40
2017,01,22,04,18,7.30
2017,01,22,04,19,7.30
2017,01,22,04,20,7.30
2017,01,22,04,21,7.20
2017,01,22,04,22,7.20
2017,01,22,04,23,7.20
2017,01,22,04,24,7.20
2017,01,22,04,25,7.20
2017,01,22,04,26,7.20
2017,01,22,04,27,7.20
2017,01,22,04,28,7.10
2017,01,22,04,29,7.10
2017,01,22,04,30,7.10
2017,01,22,04,31,7.00
2017,01,22,04,32,7.00
2017,01,22,04,33,7.00
2017,01,22,04,34,6.90
2017,01,22,04,35,6.90
2017,01,22,04,36,6.80
2017,01,22,04,37,6.80
2017,01,22,04,38,6.80
2017,01,22,04,39,6.70
2017,01,22,04,40,6.70
2017,01,22,04,41,6.70
2017,01,22,04,42,6.60
2017,01,22,04,43,6.60
2017,01,22,04,44,6.60
2017,01,22,04,45,6.50
2017,01,22,04,46,6.50
2017,01,22,04,47,6.40
2017,01,22,04,48,6.40
2017,01,22,04,49,6.40
2017,01,22,04,50,6.40
2017,01,22,04,51,6.40
2017,01,22,04,52,6.30
2017,01,22,04,53,6.30
2017,01,22,04,54,6.30
2017,01,22,04,55,6.30
2017,01,22,04,56,6.30
2017,01,22,04,57,6.20
2017,01,22,04,58,6.20
2017,01,22,04,59,6.20
2017,01,22,05,00,6.20
2017,01,22,05,01,6.20
2017,01,22,05,02,6.10
2017,01,22,05,03,6.10
2017,01,22,05,04,6.10
2017,01,22,05,05,6.10
2017,01,22,05,06,6.10
2017,01,22,05,07,6.00
2017,01,22,05,08,6.00
2017,01,22,05,09,6.00
2017,01,22,05,10,5.90
2017,01,22,05,11,5.90
2017,01,22,05,12,5.90
2017,01,22,05,13,5.90
2017,01,22,05,14,5.80
2017,01,22,05,15,5.80
2017,01,22,05,16,5.80
2017,01,22,05,17,5.80
2017,01,22,05,18,5.80
2017,01,22,05,19,5.80
2017,01,22,05,20,5.70
2017,01,22,05,21,5.70
2017,01,22,05,22,5.70
2017,01,22,05,23,5.70
2017,01,22,05,24,5.70
2017,01,22,05,25,5.60
2017,01,22,05,26,5.60
2017,01,22,05,27,5.60
2017,01,22,05,28,5.60
2017,01,22,05,29,5.60
2017,01,22,05,30,5.50
2017,01,22,05,31,5.50
2017,01,22,05,32,5.50
2017,01,22,05,33,5.40
2017,01,22,05,34,5.40
2017,01,22,05,35,5.40
2017,01,22,05,36,5.40
2017,01,22,05,37,5.40
2017,01,22,05,38,5.40
2017,01,22,05,39,5.40
2017,01,22,05,40,5.30
2017,01,22,05,41,5.30
2017,01,22,05,42,5.30
2017,01,22,05,43,5.30
2017,01,22,05,44,5.30
2017,01,22,05,45,5.30
2017,01,22,05,46,5.30
2017,01,22,05,47,5.30
2017,01,22,05,48,5.30
2017,01,22,05,49,5.30
2017,01,22,05,50,5.20
2017,01,22,05,51,5.20
2017,01,22,05,52,5.20
2017,01,22,05,53,5.20
2017,01,22,05,54,5.20
2017,01,22,05,55,5.20
2017,01,22,05,56,5.10
2017,01,22,05,57,5.10
2017,01,22,05,58,5.10
2017,01,22,05,59,5.10
2017,01,22,06,00,5.10
2017,01,22,06,01,5.10
2017,01,22,06,02,5.10
2017,01,22,06,03,5.10
2017,01,22,06,04,5.10
2017,01,22,06,05,5.00
2017,01,22,06,06,5.00
2017,01,22,06,07,5.00
2017,01,22,06,08,5.00
2017,01,22,06,09,5.00
2017,01,22,06,10,5.00
2017,01,22,06,11,5.00
2017,01,22,06,12,5.00
2017,01,22,06,13,4.90
2017,01,22,06,14,4.90
2017,01,22,06,15,4.90
2017,01,22,06,16,5.00
2017,01,22,06,17,5.00
2017,01,22,06,18,5.10
2017,01,22,06,19,5.10
2017,01,22,06,20,5.10
2017,01,22,06,21,5.10
2017,01,22,06,22,5.10
2017,01,22,06,23,5.10
2017,01,22,06,24,5.10
2017,01,22,06,25,5.00
2017,01,22,06,26,5.00
2017,01,22,06,27,5.00
2017,01,22,06,28,4.90
2017,01,22,06,29,4.90
2017,01,22,06,30,4.90
2017,01,22,06,31,4.90
2017,01,22,06,32,4.90
2017,01,22,06,33,4.80
2017,01,22,06,34,4.80
2017,01,22,06,35,4.80
2017,01,22,06,36,4.80
2017,01,22,06,37,4.80
2017,01,22,06,38,4.80
2017,01,22,06,39,4.80
2017,01,22,06,40,4.80
2017,01,22,06,41,4.80
2017,01,22,06,42,4.80
2017,01,22,06,43,4.80
2017,01,22,06,44,4.80
2017,01,22,06,45,4.80
2017,01,22,06,46,4.80
2017,01,22,06,47,4.80
2017,01,22,06,48,4.80
2017,01,22,06,49,4.80
2017,01,22,06,50,4.80
2017,01,22,06,51,4.80
2017,01,22,06,52,4.80
2017,01,22,06,53,4.80
2017,01,22,06,54,4.80
2017,01,22,06,55,4.80
2017,01,22,06,56,4.80
2017,01,22,06,57,4.80
2017,01,22,06,58,4.70
2017,01,22,06,59,4.70
2017,01,22,07,00,4.70
2017,01,22,07,01,4.70
2017,01,22,07,02,4.70
2017,01,22,07,03,4.70
2017,01,22,07,04,4.70
2017,01,22,07,05,4.70
2017,01,22,07,06,4.60
2017,01,22,07,07,4.60
2017,01,22,07,08,4.60
2017,01,22,07,09,4.60
2017,01,22,07,10,4.60
2017,01,22,07,11,4.60
2017,01,22,07,12,4.60
2017,01,22,07,13,4.60
2017,01,22,07,14,4.60
2017,01,22,07,15,4.50
2017,01,22,07,16,4.50
2017,01,22,07,17,4.50
2017,01,22,07,18,4.60
2017,01,22,07,19,4.60
2017,01,22,07,20,4.60
2017,01,22,07,21,4.60
2017,01,22,07,22,4.60
2017,01,22,07,23,4.60
2017,01,22,07,24,4.60
2017,01,22,07,25,4.60
2017,01,22,07,26,4.60
2017,01,22,07,27,4.50
2017,01,22,07,28,4.50
2017,01,22,07,29,4.50
2017,01,22,07,30,4.50
2017,01,22,07,31,4.50
2017,01,22,07,32,4.50
2017,01,22,07,33,4.50
2017,01,22,07,34,4.50
2017,01,22,07,35,4.50
2017,01,22,07,36,4.50
2017,01,22,07,37,4.50
2017,01,22,07,38,4.40
2017,01,22,07,39,4.40
2017,01,22,07,40,4.50
2017,01,22,07,41,4.40
2017,01,22,07,42,4.40
2017,01,22,07,43,4.40
2017,01,22,07,44,4.40
2017,01,22,07,45,4.40
2017,01,22,07,46,4.40
2017,01,22,07,47,4.40
2017,01,22,07,48,4.40
2017,01,22,07,49,4.40
2017,01,22,07,50,4.40
2017,01,22,07,51,4.40
2017,01,22,07,52,4.40
2017,01,22,07,53,4.50
2017,01,22,07,54,4.50
2017,01,22,07,55,4.50
2017,01,22,07,56,4.50
2017,01,22,07,57,4.50
2017,01,22,07,58,4.50
2017,01,22,07,59,4.60
2017,01,22,08,00,4.60
2017,01,22,08,01,4.60
2017,01,22,08,02,4.60
2017,01,22,08,03,4.60
2017,01,22,08,04,4.60
2017,01,22,08,05,4.60
2017,01,22,08,06,4.60
2017,01,22,08,07,4.60
2017,01,22,08,08,4.60
2017,01,22,08,09,4.60
2017,01,22,08,10,4.60
2017,01,22,08,11,4.60
2017,01,22,08,12,4.60
2017,01,22,08,13,4.60
2017,01,22,08,14,4.60
2017,01,22,08,15,4.60
2017,01,22,08,16,4.60
2017,01,22,08,17,4.60
2017,01,22,08,18,4.60
2017,01,22,08,19,4.60
2017,01,22,08,20,4.60
2017,01,22,08,21,4.70
2017,01,22,08,22,4.70
2017,01,22,08,23,4.70
2017,01,22,08,24,4.70
2017,01,22,08,25,4.70
2017,01,22,08,26,4.70
2017,01,22,08,27,4.60
2017,01,22,08,28,4.60
2017,01,22,08,29,4.70
2017,01,22,08,30,4.70
2017,01,22,08,31,4.70
2017,01,22,08,32,4.70
2017,01,22,08,33,4.70
2017,01,22,08,34,4.70
2017,01,22,08,35,4.70
2017,01,22,08,36,4.70
2017,01,22,08,37,4.70
2017,01,22,08,38,4.70
2017,01,22,08,39,4.70
2017,01,22,08,40,4.70
2017,01,22,08,41,4.70
2017,01,22,08,42,4.70
2017,01,22,08,43,4.80
2017,01,22,08,44,4.80
2017,01,22,08,45,4.80
2017,01,22,08,46,4.80
2017,01,22,08,47,4.80
2017,01,22,08,48,4.80
2017,01,22,08,49,4.80
2017,01,22,08,50,4.80
2017,01,22,08,51,4.80
2017,01,22,08,52,4.80
2017,01,22,08,53,4.80
2017,01,22,08,54,4.80
2017,01,22,08,55,4.80
2017,01,22,08,56,4.80
2017,01,22,08,57,4.80
2017,01,22,08,58,4.80
2017,01,22,08,59,4.80
2017,01,22,09,00,4.80
2017,01,22,09,01,4.80
2017,01,22,09,02,4.80
2017,01,22,09,03,4.80
2017,01,22,09,04,4.80
2017,01,22,09,05,4.80
2017,01,22,09,06,4.80
2017,01,22,09,07,4.80
2017,01,22,09,08,4.80
2017,01,22,09,09,4.80
2017,01,22,09,10,4.80
2017,01,22,09,11,4.90
2017,01,22,09,12,4.90
2017,01,22,09,13,4.90
2017,01,22,09,14,4.90
2017,01,22,09,15,4.80
2017,01,22,09,16,4.80
2017,01,22,09,17,4.80
2017,01,22,09,18,4.80
2017,01,22,09,19,4.80
2017,01,22,09,20,4.80
2017,01,22,09,21,4.80
2017,01,22,09,22,4.90
2017,01,22,09,23,4.90
2017,01,22,09,24,4.90
2017,01,22,09,25,4.90
2017,01,22,09,26,4.90
2017,01,22,09,27,4.90
2017,01,22,09,28,4.90
2017,01,22,09,29,4.90
2017,01,22,09,30,4.90
2017,01,22,09,31,4.90
2017,01,22,09,32,4.90
2017,01,22,09,33,4.90
2017,01,22,09,34,4.90
2017,01,22,09,35,4.90
2017,01,22,09,36,4.90
2017,01,22,09,37,4.90
2017,01,22,09,38,5.00
2017,01,22,09,39,5.00
2017,01,22,09,40,5.10
2017,01,22,09,41,5.10
2017,01,22,09,42,5.00
2017,01,22,09,43,5.00
2017,01,22,09,44,5.00
2017,01,22,09,45,5.00
2017,01,22,09,46,5.00
2017,01,22,09,47,5.10
2017,01,22,09,48,5.10
2017,01,22,09,49,5.10
2017,01,22,09,50,5.10
2017,01,22,09,51,5.10
2017,01,22,09,52,5.10
2017,01,22,09,53,5.10
2017,01,22,09,54,5.20
2017,01,22,09,55,5.20
2017,01,22,09,56,5.20
2017,01,22,09,57,5.20
2017,01,22,09,58,5.20
2017,01,22,09,59,5.20
2017,01,22,10,00,5.20
2017,01,22,10,01,5.20
2017,01,22,10,02,5.20
2017,01,22,10,03,5.20
2017,01,22,10,04,5.20
2017,01,22,10,05,5.20
2017,01,22,10,06,5.20
2017,01,22,10,07,5.20
2017,01,22,10,08,5.20
2017,01,22,10,09,5.20
2017,01,22,10,10,5.20
2017,01,22,10,11,5.20
2017,01,22,10,12,5.20
2017,01,22,10,13,5.20
2017,01,22,10,14,5.20
2017,01,22,10,15,5.20
2017,01,22,10,16,5.20
2017,01,22,10,17,5.30
2017,01,22,10,18,5.30
2017,01,22,10,19,5.30
2017,01,22,10,20,5.30
2017,01,22,10,21,5.30
2017,01,22,10,22,5.30
2017,01,22,10,23,5.30
2017,01,22,10,24,5.30
2017,01,22,10,25,5.30
2017,01,22,10,26,5.40
2017,01,22,10,27,5.40
2017,01,22,10,28,5.40
2017,01,22,10,29,5.40
2017,01,22,10,30,5.40
2017,01,22,10,31,5.40
2017,01,22,10,32,5.40
2017,01,22,10,33,5.40
2017,01,22,10,34,5.40
2017,01,22,10,35,5.40
2017,01,22,10,36,5.40
2017,01,22,10,37,5.40
2017,01,22,10,38,5.40
2017,01,22,10,39,5.40
2017,01,22,10,40,5.40
2017,01,22,10,41,5.40
2017,01,22,10,42,5.40
2017,01,22,10,43,5.40
2017,01,22,10,44,5.40
2017,01,22,10,45,5.40
2017,01,22,10,46,5.40
2017,01,22,10,47,5.40
2017,01,22,10,48,5.40
2017,01,22,10,49,5.40
2017,01,22,10,50,5.50
2017,01,22,10,51,5.40
2017,01,22,10,52,5.50
2017,01,22,10,53,5.50
2017,01,22,10,54,5.50
2017,01,22,10,55,5.50
2017,01,22,10,56,5.50
2017,01,22,10,57,5.50
2017,01,22,10,58,5.50
2017,01,22,10,59,5.50
2017,01,22,11,00,5.50
2017,01,22,11,01,5.60
2017,01,22,11,02,5.60
2017,01,22,11,03,5.60
2017,01,22,11,04,5.60
2017,01,22,11,05,5.60
2017,01,22,11,06,5.60
2017,01,22,11,07,5.60
2017,01,22,11,08,5.60
2017,01,22,11,09,5.60
2017,01,22,11,10,5.60
2017,01,22,11,11,5.60
2017,01,22,11,12,5.60
2017,01,22,11,13,5.60
2017,01,22,11,14,5.70
2017,01,22,11,15,5.70
2017,01,22,11,16,5.70
2017,01,22,11,17,5.70
2017,01,22,11,18,5.70
2017,01,22,11,19,5.70
2017,01,22,11,20,5.70
2017,01,22,11,21,5.70
2017,01,22,11,22,5.70
2017,01,22,11,23,5.70
2017,01,22,11,24,5.70
2017,01,22,11,25,5.70
2017,01,22,11,26,5.70
2017,01,22,11,27,5.70
2017,01,22,11,28,5.70
2017,01,22,11,29,5.80
2017,01,22,11,30,5.80
2017,01,22,11,31,5.80
2017,01,22,11,32,5.80
2017,01,22,11,33,5.80
2017,01,22,11,34,5.80
2017,01,22,11,35,5.90
2017,01,22,11,36,5.90
2017,01,22,11,37,5.90
2017,01,22,11,38,5.90
2017,01,22,11,39,6.00
2017,01,22,11,40,6.00
2017,01,22,11,41,6.00
2017,01,22,11,42,6.00
2017,01,22,11,43,6.00
2017,01,22,11,44,6.10
2017,01,22,11,45,6.10
2017,01,22,11,46,6.10
2017,01,22,11,47,6.10
2017,01,22,11,48,6.10
2017,01,22,11,49,6.10
2017,01,22,11,50,6.10
2017,01,22,11,51,6.10
2017,01,22,11,52,6.10
2017,01,22,11,53,6.10
2017,01,22,11,54,6.10
2017,01,22,11,55,6.10
2017,01,22,11,56,6.10
2017,01,22,11,57,6.10
2017,01,22,11,58,6.10
2017,01,22,11,59,6.10
2017,01,22,12,00,6.10
2017,01,22,12,01,6.10
2017,01,22,12,02,6.10
2017,01,22,12,03,6.10
2017,01,22,12,04,6.10
2017,01,22,12,05,6.10
2017,01,22,12,06,6.10
2017,01,22,12,07,6.10
2017,01,22,12,08,6.10
2017,01,22,12,09,6.10
2017,01,22,12,10,6.10
2017,01,22,12,11,6.10
2017,01,22,12,12,6.10
2017,01,22,12,13,6.10
2017,01,22,12,14,6.10
2017,01,22,12,15,6.10
2017,01,22,12,16,6.10
2017,01,22,12,17,6.10
2017,01,22,12,18,6.10
2017,01,22,12,19,6.10
2017,01,22,12,20,6.10
2017,01,22,12,21,6.10
2017,01,22,12,22,6.10
2017,01,22,12,23,6.10
2017,01,22,12,24,6.10
2017,01,22,12,25,6.10
2017,01,22,12,26,6.20
2017,01,22,12,27,6.20
2017,01,22,12,28,6.20
2017,01,22,12,29,6.20
2017,01,22,12,30,6.30
2017,01,22,12,31,6.30
2017,01,22,12,32,6.30
2017,01,22,12,33,6.30
2017,01,22,12,34,6.30
2017,01,22,12,35,6.30
2017,01,22,12,36,6.30
2017,01,22,12,37,6.30
2017,01,22,12,38,6.30
2017,01,22,12,39,6.30
2017,01,22,12,40,6.30
2017,01,22,12,41,6.40
2017,01,22,12,42,6.40
2017,01,22,12,43,6.40
2017,01,22,12,44,6.40
2017,01,22,12,45,6.40
2017,01,22,12,46,6.40
2017,01,22,12,47,6.40
2017,01,22,12,48,6.40
2017,01,22,12,49,6.40
2017,01,22,12,50,6.40
2017,01,22,12,51,6.40
2017,01,22,12,52,6.40
2017,01,22,12,53,6.40
2017,01,22,12,54,6.40
2017,01,22,12,55,6.40
2017,01,22,12,56,6.40
2017,01,22,12,57,6.40
2017,01,22,12,58,6.40
2017,01,22,12,59,6.50
2017,01,22,13,00,6.50
2017,01,22,13,01,6.60
2017,01,22,13,02,6.60
2017,01,22,13,03,6.60
2017,01,22,13,04,6.60
2017,01,22,13,05,6.60
2017,01,22,13,06,6.60
2017,01,22,13,07,6.60
2017,01,22,13,08,6.60
2017,01,22,13,09,6.60
2017,01,22,13,10,6.60
2017,01,22,13,11,6.60
2017,01,22,13,12,6.60
2017,01,22,13,13,6.60
2017,01,22,13,14,6.60
2017,01,22,13,15,6.70
2017,01,22,13,16,6.70
2017,01,22,13,17,6.70
2017,01,22,13,18,6.70
2017,01,22,13,19,6.70
2017,01,22,13,20,6.70
2017,01,22,13,21,6.70
2017,01,22,13,22,6.70
2017,01,22,13,23,6.70
2017,01,22,13,24,6.70
2017,01,22,13,25,6.70
2017,01,22,13,26,6.70
2017,01,22,13,27,6.70
2017,01,22,13,28,6.70
2017,01,22,13,29,6.70
2017,01,22,13,30,6.70
2017,01,22,13,31,6.70
2017,01,22,13,32,6.70
2017,01,22,13,33,6.70
2017,01,22,13,34,6.70
2017,01,22,13,35,6.70
2017,01,22,13,36,6.70
2017,01,22,13,37,6.70
2017,01,22,13,38,6.70
2017,01,22,13,39,6.70
2017,01,22,13,40,6.70
2017,01,22,13,41,6.70
2017,01,22,13,42,6.70
2017,01,22,13,43,6.70
2017,01,22,13,44,6.70
2017,01,22,13,45,6.70
2017,01,22,13,46,6.70
2017,01,22,13,47,6.70
2017,01,22,13,48,6.70
2017,01,22,13,49,6.80
2017,01,22,13,50,6.80
2017,01,22,13,51,6.80
2017,01,22,13,52,6.80
2017,01,22,13,53,6.80
2017,01,22,13,54,6.80
2017,01,22,13,55,6.80
2017,01,22,13,56,6.80
2017,01,22,13,57,6.80
2017,01,22,13,58,6.80
2017,01,22,13,59,6.80
2017,01,22,14,00,6.80
2017,01,22,14,01,6.80
2017,01,22,14,02,6.90
2017,01,22,14,03,6.90
2017,01,22,14,04,6.80
2017,01,22,14,05,6.80
2017,01,22,14,06,6.80
2017,01,22,14,07,6.80
2017,01,22,14,08,6.80
2017,01,22,14,09,6.80
2017,01,22,14,10,6.80
2017,01,22,14,11,6.80
2017,01,22,14,12,6.80
2017,01,22,14,13,6.80
2017,01,22,14,14,6.80
2017,01,22,14,15,6.80
2017,01,22,14,16,6.80
2017,01,22,14,17,6.80
2017,01,22,14,18,6.80
2017,01,22,14,19,6.90
2017,01,22,14,20,6.90
2017,01,22,14,21,6.90
2017,01,22,14,22,6.90
2017,01,22,14,23,6.90
2017,01,22,14,24,6.90
2017,01,22,14,25,6.90
2017,01,22,14,26,6.90
2017,01,22,14,27,6.90
2017,01,22,14,28,6.90
2017,01,22,14,29,6.90
2017,01,22,14,30,6.90
2017,01,22,14,31,6.90
2017,01,22,14,32,6.90
2017,01,22,14,33,6.90
2017,01,22,14,34,6.90
2017,01,22,14,35,6.90
2017,01,22,14,36,6.90
2017,01,22,14,37,6.90
2017,01,22,14,38,6.90
2017,01,22,14,39,6.90
2017,01,22,14,40,6.90
2017,01,22,14,41,6.90
2017,01,22,14,42,6.90
2017,01,22,14,43,6.90
2017,01,22,14,44,6.90
2017,01,22,14,45,6.90
2017,01,22,14,46,6.90
2017,01,22,14,47,6.90
2017,01,22,14,48,6.90
2017,01,22,14,49,6.90
2017,01,22,14,50,6.90
2017,01,22,14,51,6.90
2017,01,22,14,52,6.90
2017,01,22,14,53,6.90
2017,01,22,14,54,6.90
2017,01,22,14,55,6.90
2017,01,22,14,56,6.90
2017,01,22,14,57,6.90
2017,01,22,14,58,6.90
2017,01,22,14,59,6.90
2017,01,22,15,00,6.90
2017,01,22,15,01,6.90
2017,01,22,15,02,6.90
2017,01,22,15,03,6.90
2017,01,22,15,04,6.80
2017,01,22,15,05,6.80
2017,01,22,15,06,6.80
2017,01,22,15,07,6.80
2017,01,22,15,08,6.80
2017,01,22,15,09,6.80
2017,01,22,15,10,6.80
2017,01,22,15,11,6.80
2017,01,22,15,12,6.80
2017,01,22,15,13,6.80
2017,01,22,15,14,6.80
2017,01,22,15,15,6.80
2017,01,22,15,16,6.80
2017,01,22,15,17,6.80
2017,01,22,15,18,6.80
2017,01,22,15,19,6.80
2017,01,22,15,20,6.80
2017,01,22,15,21,6.80
2017,01,22,15,22,6.80
2017,01,22,15,23,6.80
2017,01,22,15,24,6.80
2017,01,22,15,25,6.80
2017,01,22,15,26,6.80
2017,01,22,15,27,6.80
2017,01,22,15,28,6.80
2017,01,22,15,29,6.80
2017,01,22,15,30,6.80
2017,01,22,15,31,6.80
2017,01,22,15,32,6.80
2017,01,22,15,33,6.80
2017,01,22,15,34,6.80
2017,01,22,15,35,6.80
2017,01,22,15,36,6.80
2017,01,22,15,37,6.80
2017,01,22,15,38,6.80
2017,01,22,15,39,6.80
2017,01,22,15,40,6.80
2017,01,22,15,41,6.80
2017,01,22,15,42,6.80
2017,01,22,15,43,6.80
2017,01,22,15,44,6.80
2017,01,22,15,45,6.90
2017,01,22,15,46,6.90
2017,01,22,15,47,6.90
2017,01,22,15,48,6.90
2017,01,22,15,49,6.90
2017,01,22,15,50,6.90
2017,01,22,15,51,6.90
2017,01,22,15,52,6.90
2017,01,22,15,53,6.90
2017,01,22,15,54,6.90
2017,01,22,15,55,6.90
2017,01,22,15,56,6.90
2017,01,22,15,57,6.90
2017,01,22,15,58,6.90
2017,01,22,15,59,6.90
2017,01,22,16,00,6.90
2017,01,22,16,01,6.90
2017,01,22,16,02,6.80
2017,01,22,16,03,6.80
2017,01,22,16,04,6.80
2017,01,22,16,05,6.80
2017,01,22,16,06,6.80
2017,01,22,16,07,6.80
2017,01,22,16,08,6.80
2017,01,22,16,09,6.80
2017,01,22,16,10,6.80
2017,01,22,16,11,6.80
2017,01,22,16,12,6.80
2017,01,22,16,13,6.80
2017,01,22,16,14,6.80
2017,01,22,16,15,6.70
2017,01,22,16,16,6.70
2017,01,22,16,17,6.70
2017,01,22,16,18,6.70
2017,01,22,16,19,6.70
2017,01,22,16,20,6.70
2017,01,22,16,21,6.70
2017,01,22,16,22,6.70
2017,01,22,16,23,6.70
2017,01,22,16,24,6.70
2017,01,22,16,25,6.70
2017,01,22,16,26,6.70
2017,01,22,16,27,6.70
2017,01,22,16,28,6.70
2017,01,22,16,29,6.70
2017,01,22,16,30,6.70
2017,01,22,16,31,6.70
2017,01,22,16,32,6.70
2017,01,22,16,33,6.70
2017,01,22,16,34,6.70
2017,01,22,16,35,6.70
2017,01,22,16,36,6.70
2017,01,22,16,37,6.70
2017,01,22,16,38,6.70
2017,01,22,16,39,6.70
2017,01,22,16,40,6.70
2017,01,22,16,41,6.70
2017,01,22,16,42,6.70
2017,01,22,16,43,6.70
2017,01,22,16,44,6.70
2017,01,22,16,45,6.70
2017,01,22,16,46,6.70
2017,01,22,16,47,6.70
2017,01,22,16,48,6.70
2017,01,22,16,49,6.70
2017,01,22,16,50,6.80
2017,01,22,16,51,6.80
2017,01,22,16,52,6.80
2017,01,22,16,53,6.80
2017,01,22,16,54,6.80
2017,01,22,16,55,6.80
2017,01,22,16,56,6.80
2017,01,22,16,57,6.80
2017,01,22,16,58,6.80
2017,01,22,16,59,6.80
2017,01,22,17,00,6.80
2017,01,22,17,01,6.80
2017,01,22,17,02,6.80
2017,01,22,17,03,6.80
2017,01,22,17,04,6.80
2017,01,22,17,05,6.80
2017,01,22,17,06,6.80
2017,01,22,17,07,6.70
2017,01,22,17,08,6.70
2017,01,22,17,09,6.70
2017,01,22,17,10,6.70
2017,01,22,17,11,6.70
2017,01,22,17,12,6.70
2017,01,22,17,13,6.70
2017,01,22,17,14,6.70
2017,01,22,17,15,6.70
2017,01,22,17,16,6.70
2017,01,22,17,17,6.70
2017,01,22,17,18,6.70
2017,01,22,17,19,6.70
2017,01,22,17,20,6.70
2017,01,22,17,21,6.70
2017,01,22,17,22,6.70
2017,01,22,17,23,6.70
2017,01,22,17,24,6.70
2017,01,22,17,25,6.70
2017,01,22,17,26,6.70
2017,01,22,17,27,6.70
2017,01,22,17,28,6.70
2017,01,22,17,29,6.70
2017,01,22,17,30,6.70
2017,01,22,17,31,6.70
2017,01,22,17,32,6.70
2017,01,22,17,33,6.70
2017,01,22,17,34,6.70
2017,01,22,17,35,6.70
2017,01,22,17,36,6.70
2017,01,22,17,37,6.60
2017,01,22,17,38,6.60
2017,01,22,17,39,6.60
2017,01,22,17,40,6.60
2017,01,22,17,41,6.60
2017,01,22,17,42,6.60
2017,01,22,17,43,6.60
2017,01,22,17,44,6.60
2017,01,22,17,45,6.60
2017,01,22,17,46,6.60
2017,01,22,17,47,6.60
2017,01,22,17,48,6.60
2017,01,22,17,49,6.60
2017,01,22,17,50,6.60
2017,01,22,17,51,6.60
2017,01,22,17,52,6.60
2017,01,22,17,53,6.60
2017,01,22,17,54,6.60
2017,01,22,17,55,6.60
2017,01,22,17,56,6.60
2017,01,22,17,57,6.60
2017,01,22,17,58,6.60
2017,01,22,17,59,6.60
2017,01,22,18,00,6.60
2017,01,22,18,01,6.60
2017,01,22,18,02,6.60
2017,01,22,18,03,6.60
2017,01,22,18,04,6.60
2017,01,22,18,05,6.60
2017,01,22,18,06,6.60